Year,Month,Day,Hour,Minute,Value (Times are PST for temperature in C)
2007,01,12,00,00,-6.10
2007,01,12,00,05,-6.20
2007,01,12,00,10,-6.30
2007,01,12,00,15,-6.30
2007,01,12,00,20,-6.40
2007,01,12,00,25,-6.50
2007,01,12,00,30,-6.50
2007,01,12,00,35,-6.50
2007,01,12,00,40,-6.50
2007,01,12,00,45,-6.50
2007,01,12,00,50,-6.50
2007,01,12,00,55,-6.50
2007,01,12,01,00,-6.60
2007,01,12,01,05,-6.60
2007,01,12,01,10,-6.70
2007,01,12,01,15,-6.70
2007,01,12,01,20,-6.70
2007,01,12,01,25,-6.70
2007,01,12,01,30,-6.70
2007,01,12,01,35,-6.70
2007,01,12,01,40,-6.80
2007,01,12,01,45,-6.90
2007,01,12,01,50,-6.90
2007,01,12,01,55,-6.90
2007,01,12,02,00,-6.90
2007,01,12,02,05,-6.90
2007,01,12,02,10,-6.90
2007,01,12,02,15,-6.90
2007,01,12,02,20,-6.90
2007,01,12,02,25,-6.90
2007,01,12,02,30,-6.80
2007,01,12,02,35,-6.80
2007,01,12,02,40,-6.80
2007,01,12,02,45,-6.80
2007,01,12,02,50,-6.80
2007,01,12,02,55,-6.80
2007,01,12,03,00,-6.90
2007,01,12,03,05,-7.00
2007,01,12,03,10,-7.10
2007,01,12,03,15,-7.10
2007,01,12,03,20,-7.20
2007,01,12,03,25,-7.20
2007,01,12,03,30,-7.30
2007,01,12,03,35,-7.30
2007,01,12,03,40,-7.30
2007,01,12,03,45,-7.30
2007,01,12,03,50,-7.30
2007,01,12,03,55,-7.30
2007,01,12,04,00,-7.30
2007,01,12,04,05,-7.30
2007,01,12,04,10,-7.30
2007,01,12,04,15,-7.30
2007,01,12,04,20,-7.30
2007,01,12,04,25,-7.40
2007,01,12,04,30,-7.40
2007,01,12,04,35,-7.40
2007,01,12,04,40,-7.40
2007,01,12,04,45,-7.40
2007,01,12,04,50,-7.40
2007,01,12,04,55,-7.30
2007,01,12,05,00,-7.30
2007,01,12,05,05,-7.30
2007,01,12,05,10,-7.30
2007,01,12,05,15,-7.40
2007,01,12,05,20,-7.30
2007,01,12,05,25,-7.30
2007,01,12,05,30,-7.30
2007,01,12,05,35,-7.30
2007,01,12,05,40,-7.30
2007,01,12,05,45,-7.40
2007,01,12,05,50,-7.40
2007,01,12,05,55,-7.30
2007,01,12,06,00,-7.30
2007,01,12,06,05,-7.30
2007,01,12,06,10,-7.20
2007,01,12,06,15,-7.10
2007,01,12,06,20,-7.00
2007,01,12,06,25,-6.90
2007,01,12,06,30,-6.90
2007,01,12,06,35,-7.00
2007,01,12,06,40,-7.00
2007,01,12,06,45,-6.90
2007,01,12,06,50,-6.90
2007,01,12,06,55,-6.90
2007,01,12,07,00,-6.90
2007,01,12,07,05,-6.80
2007,01,12,07,10,-6.80
2007,01,12,07,15,-6.70
2007,01,12,07,20,-6.70
2007,01,12,07,25,-6.70
2007,01,12,07,30,-6.70
2007,01,12,07,35,-6.70
2007,01,12,07,40,-6.70
2007,01,12,07,45,-6.70
2007,01,12,07,50,-6.70
2007,01,12,07,55,-6.70
2007,01,12,08,00,-6.70
2007,01,12,08,05,-6.60
2007,01,12,08,10,-6.50
2007,01,12,08,15,-6.40
2007,01,12,08,20,-6.30
2007,01,12,08,25,-6.20
2007,01,12,08,30,-6.10
2007,01,12,08,35,-6.10
2007,01,12,08,40,-5.90
2007,01,12,08,45,-5.90
2007,01,12,08,50,-5.70
2007,01,12,08,55,-5.60
2007,01,12,09,00,-5.50
2007,01,12,09,05,-5.50
2007,01,12,09,10,-5.40
2007,01,12,09,15,-5.30
2007,01,12,09,20,-5.30
2007,01,12,09,25,-5.30
2007,01,12,09,30,-5.30
2007,01,12,09,35,-5.20
2007,01,12,09,40,-5.10
2007,01,12,09,45,-5.10
2007,01,12,09,50,-5.20
2007,01,12,09,55,-5.10
2007,01,12,10,00,-5.10
2007,01,12,10,05,-5.10
2007,01,12,10,10,-5.10
2007,01,12,10,15,-5.00
2007,01,12,10,20,-4.90
2007,01,12,10,25,-4.80
2007,01,12,10,30,-4.80
2007,01,12,10,35,-4.70
2007,01,12,10,40,-4.70
2007,01,12,10,45,-4.70
2007,01,12,10,50,-4.70
2007,01,12,10,55,-4.70
2007,01,12,11,00,-4.70
2007,01,12,11,05,-4.60
2007,01,12,11,10,-4.60
2007,01,12,11,15,-4.60
2007,01,12,11,20,-4.50
2007,01,12,11,25,-4.40
2007,01,12,11,30,-4.30
2007,01,12,11,35,-4.30
2007,01,12,11,40,-4.20
2007,01,12,11,45,-4.40
2007,01,12,11,50,-4.60
2007,01,12,11,55,-4.60
2007,01,12,12,00,-4.60
2007,01,12,12,05,-4.70
2007,01,12,12,10,-4.60
2007,01,12,12,15,-4.50
2007,01,12,12,20,-4.40
2007,01,12,12,25,-4.30
2007,01,12,12,30,-4.20
2007,01,12,12,35,-4.20
2007,01,12,12,40,-4.20
2007,01,12,12,45,-4.10
2007,01,12,12,50,-3.90
2007,01,12,12,55,-3.80
2007,01,12,13,00,-3.70
2007,01,12,13,05,-3.70
2007,01,12,13,10,-3.70
2007,01,12,13,15,-3.70
2007,01,12,13,20,-3.70
2007,01,12,13,25,-3.70
2007,01,12,13,30,-3.70
2007,01,12,13,35,-3.80
2007,01,12,13,40,-3.90
2007,01,12,13,45,-3.80
2007,01,12,13,50,-3.80
2007,01,12,13,55,-3.70
2007,01,12,14,00,-3.60
2007,01,12,14,05,-3.40
2007,01,12,14,10,-3.40
2007,01,12,14,15,-3.20
2007,01,12,14,20,-2.90
2007,01,12,14,25,-2.80
2007,01,12,14,30,-2.60
2007,01,12,14,35,-2.40
2007,01,12,14,40,-2.30
2007,01,12,14,45,-2.20
2007,01,12,14,50,-1.80
2007,01,12,14,55,-1.50
2007,01,12,15,00,-1.20
2007,01,12,15,05,-1.10
2007,01,12,15,10,-1.10
2007,01,12,15,15,-1.30
2007,01,12,15,20,-1.30
2007,01,12,15,25,-1.40
2007,01,12,15,30,-1.70
2007,01,12,15,35,-1.80
2007,01,12,15,40,-1.70
2007,01,12,15,45,-1.50
2007,01,12,15,50,-1.40
2007,01,12,15,55,-1.40
2007,01,12,16,00,-1.40
2007,01,12,16,05,-1.60
2007,01,12,16,10,-1.80
2007,01,12,16,15,-1.80
2007,01,12,16,20,-1.90
2007,01,12,16,25,-2.00
2007,01,12,16,30,-2.10
2007,01,12,16,35,-2.20
2007,01,12,16,40,-2.20
2007,01,12,16,45,-2.20
2007,01,12,16,50,-2.10
2007,01,12,16,55,-2.20
2007,01,12,17,00,-2.30
2007,01,12,17,05,-2.40
2007,01,12,17,10,-2.50
2007,01,12,17,15,-2.60
2007,01,12,17,20,-2.70
2007,01,12,17,25,-2.80
2007,01,12,17,30,-2.80
2007,01,12,17,35,-2.90
2007,01,12,17,40,-3.00
2007,01,12,17,45,-3.10
2007,01,12,17,50,-3.20
2007,01,12,17,55,-3.30
2007,01,12,18,00,-3.30
2007,01,12,18,05,-3.40
2007,01,12,18,10,-3.50
2007,01,12,18,15,-3.60
2007,01,12,18,20,-3.70
2007,01,12,18,25,-3.70
2007,01,12,18,30,-3.70
2007,01,12,18,35,-3.80
2007,01,12,18,40,-3.80
2007,01,12,18,45,-3.90
2007,01,12,18,50,-3.90
2007,01,12,18,55,-4.00
2007,01,12,19,00,-4.00
2007,01,12,19,05,-4.00
2007,01,12,19,10,-4.00
2007,01,12,19,15,-4.00
2007,01,12,19,20,-4.00
2007,01,12,19,25,-4.00
2007,01,12,19,30,-4.00
2007,01,12,19,35,-4.00
2007,01,12,19,40,-4.00
2007,01,12,19,45,-4.00
2007,01,12,19,50,-4.00
2007,01,12,19,55,-4.10
2007,01,12,20,00,-4.10
2007,01,12,20,05,-4.10
2007,01,12,20,10,-4.10
2007,01,12,20,15,-4.10
2007,01,12,20,20,-4.00
2007,01,12,20,25,-4.00
2007,01,12,20,30,-3.90
2007,01,12,20,35,-3.80
2007,01,12,20,40,-3.80
2007,01,12,20,45,-3.70
2007,01,12,20,50,-3.70
2007,01,12,20,55,-3.70
2007,01,12,21,00,-3.70
2007,01,12,21,05,-3.70
2007,01,12,21,10,-3.70
2007,01,12,21,15,-3.60
2007,01,12,21,20,-3.60
2007,01,12,21,25,-3.60
2007,01,12,21,30,-3.70
2007,01,12,21,35,-3.60
2007,01,12,21,40,-3.60
2007,01,12,21,45,-3.60
2007,01,12,21,50,-3.50
2007,01,12,21,55,-3.50
2007,01,12,22,00,-3.50
2007,01,12,22,05,-3.50
2007,01,12,22,10,-3.50
2007,01,12,22,15,-3.50
2007,01,12,22,20,-3.50
2007,01,12,22,25,-3.50
2007,01,12,22,30,-3.50
2007,01,12,22,35,-3.50
2007,01,12,22,40,-3.40
2007,01,12,22,45,-3.40
2007,01,12,22,50,-3.40
2007,01,12,22,55,-3.50
2007,01,12,23,00,-3.50
2007,01,12,23,05,-3.50
2007,01,12,23,10,-3.50
2007,01,12,23,15,-3.50
2007,01,12,23,20,-3.50
2007,01,12,23,25,-3.50
2007,01,12,23,30,-3.50
2007,01,12,23,35,-3.50
2007,01,12,23,40,-3.50
2007,01,12,23,45,-3.50
2007,01,12,23,50,-3.40
2007,01,12,23,55,-3.40
